TimeMDT,TemperatureF,Dew PointF,Humidity,Sea Level PressureIn,VisibilityMPH,Wind Direction,Wind SpeedMPH,Gust SpeedMPH,PrecipitationIn,Events,Conditions,WindDirDegrees,DateUTC
12:53 AM,39.0,34.0,82,30.11,10.0,WSW,5.8,-,N/A,,Clear,250,2012-10-02 06:53:00
1:53 AM,37.9,33.1,83,30.09,10.0,WSW,5.8,-,N/A,,Clear,240,2012-10-02 07:53:00
2:53 AM,37.9,33.1,83,30.07,10.0,SW,5.8,-,N/A,,Clear,230,2012-10-02 08:53:00
3:53 AM,39.0,32.0,76,30.06,10.0,SW,8.1,-,N/A,,Clear,220,2012-10-02 09:53:00
4:53 AM,39.0,34.0,82,30.04,10.0,SW,8.1,-,N/A,,Clear,220,2012-10-02 10:53:00
5:53 AM,39.0,35.1,86,30.03,10.0,SSW,10.4,-,N/A,,Clear,200,2012-10-02 11:53:00
6:53 AM,41.0,36.0,82,30.02,10.0,SSW,9.2,-,N/A,,Clear,200,2012-10-02 12:53:00
7:53 AM,45.0,39.0,80,30.00,10.0,South,10.4,-,N/A,,Clear,190,2012-10-02 13:53:00
8:53 AM,55.0,42.1,62,29.98,10.0,SSW,15.0,-,N/A,,Clear,200,2012-10-02 14:53:00
9:53 AM,61.0,42.1,50,29.95,10.0,SSW,17.3,-,N/A,,Clear,210,2012-10-02 15:53:00
10:53 AM,68.0,41.0,37,29.94,10.0,SSW,15.0,-,N/A,,Clear,210,2012-10-02 16:53:00
11:53 AM,73.0,39.9,30,29.91,10.0,SW,13.8,-,N/A,,Clear,230,2012-10-02 17:53:00
12:53 PM,75.9,39.0,26,29.87,10.0,SW,10.4,-,N/A,,Clear,230,2012-10-02 18:53:00
1:53 PM,78.1,37.0,23,29.84,10.0,Variable,3.5,-,N/A,,Clear,0,2012-10-02 19:53:00
2:53 PM,79.0,37.0,22,29.81,10.0,South,9.2,-,N/A,,Clear,180,2012-10-02 20:53:00
3:53 PM,80.1,37.0,21,29.79,10.0,South,10.4,-,N/A,,Clear,170,2012-10-02 21:53:00
4:53 PM,79.0,37.0,22,29.79,10.0,South,11.5,-,N/A,,Clear,190,2012-10-02 22:53:00
6:53 PM,64.0,41.0,43,29.81,10.0,South,11.5,-,N/A,,Clear,190,2012-10-03 00:53:00
7:53 PM,57.9,41.0,53,29.83,10.0,South,11.5,-,N/A,,Clear,190,2012-10-03 01:53:00
8:53 PM,57.9,39.9,51,29.81,10.0,South,13.8,-,N/A,,Clear,190,2012-10-03 02:53:00
9:53 PM,57.9,39.0,49,29.79,10.0,South,16.1,-,N/A,,Clear,190,2012-10-03 03:53:00
10:53 PM,57.9,42.1,56,29.78,10.0,SSW,15.0,-,N/A,,Clear,200,2012-10-03 04:53:00
11:53 PM,54.0,43.0,66,29.77,10.0,SSW,9.2,-,N/A,,Clear,200,2012-10-03 05:53:00